Temperature
-0 0 0 0 0 -1 -1 -1 -1 -0 -1 -1 -2 -3 -2 -2 -2 -3 -3 -3 -3 -3 -3 -4 -4 -4 -5 -5 -5 -5 -5 -5 -6 -6 -6 -6 -6 -6 -6 -6 -6 -6 -6 -6
-1 -1 -1 -1 -1 -1 -1 -1 -2 -1 -1 -2 -3 -3 -3 -3 -3 -3 -3 -3 -3 -3 -4 -4 -4 -5 -5 -5 -5 -6 -6 -6 -6 -6 -6 -7 -6 -6 -6 -6 -6 -6 -6 -6
-1 -1 -1 -1 -1 -1 -2 -3 -3 -2 -2 -3 -4 -4 -4 -3 -3 -3 -3 -3 -4 -4 -4 -5 -5 -5 -5 -6 -6 -6 -6 -6 -7 -7 -7 -7 -7 -7 -7 -7 -7 -7 -7 -6
-2 -2 -0 0 -3 -2 -3 -4 -4 -4 -4 -4 -4 -4 -3 -3 -3 -3 -3 -4 -4 -4 -5 -5 -5 -6 -6 -6 -7 -7 -7 -7 -7 -7 -7 -7 -7 -7 -7 -7 -8 -7 -7 -7
-3 -2 -2 -2 -3 -4 -3 -3 -5 -5 -5 -5 -5 -5 -4 -3 -3 -3 -4 -4 -5 -5 -5 -6 -6 -6 -7 -7 -7 -7 -7 -7 -7 -8 -8 -8 -8 -8 -8 -8 -8 -8 -8 -8
-4 -2 -1 -1 -3 -4 -4 -3 -4 -5 -5 -5 -5 -6 -5 -3 -4 -4 -5 -5 -6 -6 -6 -6 -7 -7 -7 -7 -8 -8 -8 -8 -8 -8 -8 -8 -8 -8 -8 -8 -8 -8 -8 -8
-4 -3 -3 -3 -4 -4 -2 -2 -3 -4 -4 -5 -6 -5 -4 -4 -5 -5 -5 -6 -6 -6 -7 -7 -7 -8 -8 -8 -8 -8 -8 -8 -8 -9 -9 -9 -9 -9 -9 -9 -9 -9 -9 -9
-4 -4 -2 -4 -5 -4 -3 -3 -3 -3 -3 -4 -4 -4 -5 -5 -5 -6 -6 -6 -7 -7 -7 -7 -8 -8 -8 -8 -9 -9 -9 -9 -9 -9 -9 -9 -9 -9 -9 -9 -9 -9 -9 -9
-4 -3 -4 -4 -4 -3 -3 -3 -3 -3 -4 -4 -5 -5 -5 -6 -6 -7 -7 -7 -7 -8 -8 -8 -8 -9 -9 -9 -9 -9 -9 -9 -9 -9 -9 -10 -10 -10 -10 -10 -10 -10 -10 -10
-6 -5 -5 -4 -3 -3 -3 -3 -4 -4 -4 -5 -5 -6 -6 -7 -7 -7 -8 -8 -8 -8 -8 -8 -9 -9 -9 -10 -10 -10 -10 -10 -10 -10 -10 -10 -10 -10 -10 -10 -10 -11 -11 -11
-6 -6 -6 -4 -4 -4 -4 -4 -4 -5 -5 -6 -6 -7 -7 -7 -8 -8 -8 -8 -9 -9 -9 -9 -9 -9 -10 -10 -10 -10 -10 -10 -10 -11 -11 -11 -11 -11 -11 -11 -11 -11 -11 -11
-5 -5 -6 -5 -4 -4 -5 -5 -5 -6 -6 -6 -7 -7 -8 -8 -8 -9 -9 -9 -9 -9 -9 -10 -10 -10 -10 -10 -11 -11 -11 -11 -11 -11 -11 -11 -11 -11 -11 -11 -11 -11 -11 -12
-4 -5 -5 -5 -5 -5 -5 -5 -6 -6 -7 -7 -7 -8 -8 -8 -9 -9 -9 -9 -10 -10 -10 -10 -10 -10 -11 -11 -11 -11 -12 -12 -12 -12 -12 -12 -12 -12 -12 -11 -11 -11 -12 -12
-5 -5 -6 -6 -6 -6 -6 -6 -7 -7 -7 -8 -8 -8 -9 -9 -9 -9 -10 -10 -10 -10 -10 -11 -11 -11 -11 -11 -12 -12 -12 -12 -12 -12 -12 -13 -13 -13 -13 -12 -12 -12 -12 -12
-6 -6 -6 -6 -7 -7 -7 -7 -8 -8 -8 -8 -9 -9 -9 -9 -10 -10 -10 -10 -11 -11 -11 -11 -11 -11 -12 -12 -12 -12 -12 -13 -13 -13 -13 -13 -13 -13 -13 -13 -13 -13 -12 -12
-6 -6 -7 -7 -7 -7 -8 -8 -8 -9 -9 -9 -9 -10 -10 -10 -10 -10 -10 -11 -11 -11 -11 -11 -12 -12 -12 -12 -12 -13 -13 -13 -13 -13 -13 -13 -13 -13 -13 -13 -13 -13 -13 -13
-7 -7 -7 -8 -8 -8 -8 -8 -9 -9 -9 -10 -10 -10 -10 -10 -11 -11 -11 -11 -11 -12 -12 -12 -12 -12 -13 -13 -13 -13 -13 -13 -13 -14 -14 -14 -14 -14 -14 -14 -14 -14 -14 -13
-7 -7 -7 -8 -8 -8 -9 -9 -9 -9 -10 -10 -10 -11 -11 -11 -11 -11 -11 -12 -12 -12 -12 -12 -13 -13 -13 -13 -13 -13 -14 -14 -14 -14 -14 -14 -14 -14 -14 -14 -14 -14 -14 -14
-7 -7 -8 -8 -8 -9 -9 -9 -10 -10 -10 -11 -11 -11 -11 -11 -12 -12 -12 -12 -12 -12 -12 -13 -13 -13 -13 -14 -14 -14 -14 -14 -14 -14 -14 -14 -14 -14 -15 -15 -15 -15 -14 -14
-8 -8 -8 -9 -9 -9 -9 -10 -10 -10 -11 -11 -11 -11 -12 -12 -12 -12 -12 -12 -13 -13 -13 -13 -13 -14 -14 -14 -14 -14 -14 -14 -14 -14 -15 -15 -15 -15 -15 -15 -15 -15 -15 -15
-8 -8 -9 -9 -9 -10 -10 -10 -10 -11 -11 -11 -12 -12 -12 -12 -12 -13 -13 -13 -13 -13 -13 -14 -14 -14 -14 -14 -14 -15 -15 -15 -15 -15 -15 -15 -15 -15 -15 -15 -15 -15 -15 -15
-9 -9 -9 -10 -10 -10 -10 -11 -11 -11 -11 -12 -12 -12 -12 -13 -13 -13 -13 -13 -13 -14 -14 -14 -14 -14 -15 -15 -15 -15 -15 -15 -15 -15 -15 -15 -15 -15 -15 -15 -15 -15 -15 -15
-9 -10 -10 -10 -10 -11 -11 -11 -12 -12 -12 -12 -12 -13 -13 -13 -13 -14 -13 -14 -14 -14 -14 -14 -15 -15 -15 -15 -15 -15 -15 -15 -15 -15 -16 -16 -16 -16 -16 -16 -16 -16 -15 -15
-10 -10 -10 -11 -11 -11 -11 -12 -12 -12 -12 -13 -13 -13 -13 -13 -13 -14 -14 -14 -14 -14 -15 -15 -15 -15 -15 -15 -15 -15 -15 -16 -16 -16 -16 -16 -16 -16 -16 -16 -16 -16 -16 -15
-11 -11 -11 -11 -11 -12 -12 -12 -12 -12 -13 -13 -13 -13 -14 -14 -14 -14 -14 -14 -14 -15 -15 -15 -15 -15 -15 -15 -15 -16 -16 -16 -16 -16 -16 -16 -16 -16 -16 -16 -16 -16 -16 -16
-11 -11 -12 -12 -12 -12 -12 -13 -13 -13 -13 -13 -13 -14 -14 -14 -14 -14 -14 -15 -15 -15 -15 -15 -15 -15 -15 -15 -16 -16 -16 -16 -16 -16 -16 -16 -16 -16 -16 -16 -16 -16 -16 -16
-12 -12 -12 -12 -12 -13 -13 -13 -13 -13 -13 -14 -14 -14 -14 -14 -14 -15 -15 -15 -15 -15 -15 -15 -15 -15 -16 -16 -16 -16 -16 -16 -16 -16 -16 -16 -16 -16 -16 -16 -16 -16 -16 -16
Wind_Speed
5 3 3 6 7 8 10 9 9 9 9 11 7 5 5 3 2 2 2 3 4 4 3 3 4 4 4 4 4 4 4 5 6 6 6 6 7 7 7 7 8 8 8 8
4 2 3 6 9 10 11 8 10 9 11 7 4 2 2 3 3 3 4 4 3 4 4 4 4 5 5 5 5 4 5 6 7 6 7 7 7 7 7 7 7 8 8 8
4 3 4 8 8 10 6 6 7 11 9 3 2 3 4 4 4 4 4 3 4 4 4 5 5 4 5 5 5 5 6 6 6 6 7 8 8 7 8 7 8 8 8 8
1 2 7 6 1 4 6 6 7 7 5 3 3 2 3 3 4 4 3 3 3 3 4 4 4 4 4 5 5 5 6 7 7 7 8 8 8 8 8 7 8 8 9 9
2 3 8 6 2 3 5 6 6 8 6 3 1 2 4 2 3 3 3 3 3 3 3 3 4 4 4 5 5 6 7 7 7 7 8 8 8 8 8 7 8 8 9 8
3 4 7 5 2 2 3 5 3 6 6 3 2 1 4 1 0 1 2 2 2 2 2 3 4 3 4 5 6 7 7 8 8 8 8 9 9 8 7 7 8 9 9 8
6 6 8 4 2 3 3 5 1 3 4 4 5 4 2 1 1 1 1 2 2 2 3 4 4 3 4 6 7 8 8 8 8 8 8 8 8 7 7 7 7 7 9 8
5 6 8 3 5 6 5 1 1 2 2 4 3 2 1 1 1 2 2 2 2 2 4 4 4 3 5 7 8 7 8 8 8 8 7 7 7 7 7 6 7 7 7 8
8 7 2 4 5 3 2 2 2 2 2 3 2 2 2 2 2 2 2 3 3 3 4 5 4 3 6 7 7 7 8 8 8 8 7 7 7 8 7 5 5 6 6 7
4 6 3 3 3 1 1 2 1 1 1 2 2 2 2 2 2 2 3 3 3 3 5 6 5 6 6 7 7 7 8 8 8 7 7 6 6 6 6 5 5 6 6 7
5 5 3 3 3 3 2 1 1 1 0 1 2 2 2 2 3 3 3 3 3 4 5 7 7 7 7 7 6 7 7 7 7 7 7 6 6 5 7 6 7 8 7 7
6 5 4 3 1 1 2 2 1 1 1 1 1 2 1 2 2 3 4 4 4 5 6 7 7 7 7 6 6 6 7 7 6 6 6 6 6 7 10 10 13 13 13 12
3 0 2 1 1 1 1 1 1 1 1 1 1 1 1 2 3 3 4 4 5 6 6 7 7 8 7 7 6 6 7 7 6 6 6 6 6 7 9 10 12 12 13 15
1 1 1 1 0 1 2 2 2 2 1 0 0 1 1 2 3 4 5 5 6 6 6 6 7 8 7 6 7 7 6 8 7 5 6 6 6 7 7 8 9 8 10 14
1 1 2 1 2 2 2 2 2 2 1 2 1 1 2 3 4 5 5 5 5 5 6 6 7 8 7 6 7 7 6 5 6 6 6 6 6 7 7 8 8 8 8 10
1 2 2 2 1 1 1 1 1 1 1 2 2 2 3 3 4 5 5 4 4 6 7 7 8 8 7 6 7 6 6 10 9 6 6 6 6 6 7 7 7 7 8 8
3 1 1 1 1 1 1 1 1 2 2 2 3 3 3 4 4 5 5 5 5 6 7 7 8 8 7 7 6 6 6 7 11 8 6 6 6 6 7 7 7 7 7 10
3 3 3 3 3 2 1 1 1 2 2 3 2 2 3 4 5 6 7 6 6 7 7 7 7 7 7 7 6 5 5 5 6 6 6 6 7 6 6 7 7 8 8 10
1 1 1 1 2 2 1 1 2 2 2 2 2 3 4 4 5 6 6 6 6 7 7 7 11 8 7 8 9 5 5 6 6 6 6 8 8 6 6 7 7 7 8 8
2 2 2 1 1 1 0 1 1 2 2 1 2 3 4 5 5 6 5 6 5 6 7 9 8 7 7 8 9 5 5 6 6 6 6 6 6 7 7 7 7 7 7 7
1 1 1 1 1 1 1 1 1 2 2 2 2 4 5 6 5 5 5 6 6 6 7 10 7 6 7 8 8 4 4 5 6 6 6 6 6 7 7 7 7 8 7 7
0 0 0 0 1 2 2 1 1 2 2 3 3 4 5 6 6 6 5 5 6 10 7 5 5 9 11 9 4 4 5 5 5 5 5 6 6 7 7 7 7 7 7 7
0 0 0 1 1 2 2 2 2 2 3 4 4 5 5 5 5 5 6 5 5 10 8 5 10 14 14 6 4 4 5 6 6 6 6 6 6 6 7 7 7 7 7 7
0 0 1 1 1 1 3 3 3 3 4 4 4 5 5 5 5 4 4 9 11 11 6 9 13 13 12 5 4 5 5 6 6 6 6 6 6 6 6 7 7 7 7 8
0 0 1 1 1 2 3 3 3 3 4 4 4 4 4 3 4 5 5 6 10 10 6 9 12 12 8 5 5 6 6 6 6 6 6 6 6 6 6 7 7 7 7 7
1 1 1 2 2 2 2 2 3 3 3 4 4 4 3 3 4 4 4 5 7 9 6 5 6 8 6 6 6 6 6 7 7 6 6 6 7 7 7 7 8 7 7 7
2 1 2 2 2 2 2 2 3 4 3 4 5 4 4 4 4 4 5 5 5 5 5 5 5 5 5 6 6 6 6 6 6 6 6 6 6 6 7 8 8 8 8 8
Wind_Direction
259 268 223 228 225 200 205 211 218 241 245 264 260 252 246 229 222 230 246 248 250 251 260 273 285 290 292 294 297 298 300 297 292 294 293 293 293 293 294 296 297 295 296 292
281 275 256 261 246 224 224 231 240 259 269 266 264 252 252 244 231 241 256 261 262 262 265 272 279 288 295 296 299 300 293 291 294 297 297 295 293 294 296 296 296 294 294 292
265 317 332 265 234 212 207 211 205 233 247 252 260 246 242 243 237 245 263 267 263 267 266 269 274 280 281 286 296 295 290 292 296 298 298 296 297 298 297 296 294 292 292 288
264 21 249 249 179 189 205 239 224 236 252 231 225 261 280 248 226 247 266 266 269 270 277 283 286 287 289 294 295 292 291 294 298 299 298 299 297 294 293 292 290 289 291 288
175 246 275 287 227 172 194 269 227 224 241 242 167 351 315 267 211 229 250 261 267 272 283 295 298 297 300 301 299 295 296 299 301 299 298 298 296 295 293 292 291 289 290 287
168 215 250 252 187 153 104 292 251 203 219 213 126 287 279 303 228 264 282 289 288 302 313 306 303 305 303 303 304 300 301 301 300 299 298 296 293 293 294 291 290 293 293 289
203 231 262 254 178 128 174 259 251 181 198 179 191 217 241 313 327 297 308 312 316 318 312 303 308 313 306 306 299 299 304 303 302 300 298 294 294 296 294 293 295 293 293 292
181 215 254 184 141 182 216 282 154 176 185 190 209 239 268 288 307 324 330 333 327 316 310 315 318 314 308 304 303 308 308 306 303 302 301 304 302 303 302 296 296 295 295 297
198 219 260 172 193 212 182 211 227 201 209 182 202 240 263 288 297 312 319 318 317 304 308 316 316 308 300 303 310 313 311 307 306 307 306 306 304 304 306 302 295 296 296 298
242 261 253 238 242 247 192 210 222 185 178 171 212 235 260 278 299 312 317 314 315 315 312 312 314 312 300 305 312 311 308 308 309 310 309 306 304 303 304 299 297 297 295 298
251 270 303 277 236 229 202 168 117 59 116 188 194 246 256 274 289 296 307 311 309 306 303 305 311 310 310 313 314 311 308 305 308 308 304 306 305 298 298 286 288 295 295 292
234 228 208 252 283 183 181 210 207 179 333 344 207 241 266 281 288 295 300 307 309 305 304 305 309 308 310 311 309 308 310 310 308 307 307 308 309 311 308 306 305 304 304 303
235 207 198 244 328 120 168 188 176 170 192 254 306 268 278 290 299 304 305 305 300 298 299 303 306 307 310 311 310 303 301 304 304 307 310 312 312 313 315 318 315 311 311 313
214 140 246 251 264 80 98 91 82 72 63 74 328 336 316 299 304 305 301 298 297 300 301 303 304 304 308 308 307 303 300 303 307 302 306 307 309 309 310 313 318 318 319 320
349 171 180 117 82 75 78 83 70 39 16 360 350 320 307 300 298 298 300 305 309 307 305 307 305 304 310 310 310 307 306 305 303 302 303 305 309 310 311 311 312 314 318 320
93 94 111 117 123 97 85 101 112 307 321 319 317 308 300 293 293 297 302 306 306 305 306 307 302 303 309 311 310 307 303 308 314 308 307 309 311 311 311 312 312 313 315 318
150 170 178 199 212 218 230 235 232 250 273 285 291 304 310 309 307 307 306 303 293 291 294 297 299 305 306 304 302 301 301 306 314 313 308 308 307 307 307 307 309 310 311 314
193 197 189 191 202 219 250 266 264 269 270 272 292 306 308 307 303 304 307 311 312 308 302 298 301 307 305 307 305 301 303 304 306 306 306 308 305 304 308 309 311 312 312 316
126 136 143 146 169 189 218 246 265 273 282 284 289 292 293 293 295 299 306 311 312 310 312 312 318 321 313 311 315 303 305 306 308 309 309 313 318 316 312 310 309 310 312 314
89 90 94 77 59 95 238 270 270 286 292 286 288 298 302 302 301 303 304 296 285 282 295 306 312 312 309 306 312 303 304 307 309 310 311 310 310 311 310 309 309 310 310 311
85 74 66 54 19 1 318 273 262 285 295 290 281 286 292 299 301 301 301 301 300 300 304 313 318 309 306 307 312 311 310 310 308 307 308 308 308 309 309 310 311 311 311 311
87 80 7 7 355 326 319 305 281 283 292 296 292 291 298 304 307 302 283 275 296 314 320 309 307 310 316 320 323 317 312 309 307 305 304 305 306 307 309 313 313 313 313 313
269 255 278 288 280 294 315 313 295 287 288 289 290 290 288 289 291 294 301 302 306 313 320 309 314 320 327 341 334 321 316 313 311 308 306 305 304 305 308 310 310 310 310 310
305 313 303 307 326 327 315 309 303 295 287 285 281 280 284 292 291 270 276 307 318 318 316 313 322 328 335 343 324 316 313 311 309 306 303 303 304 306 306 307 307 307 306 305
357 334 339 339 321 297 294 303 309 307 303 300 297 292 283 268 272 293 297 300 312 320 316 317 324 330 335 321 317 314 310 306 305 306 307 308 307 306 304 304 303 303 303 302
355 314 294 280 277 287 296 302 303 304 308 309 308 304 303 300 291 295 300 302 305 317 319 312 314 320 320 315 312 311 309 310 314 315 310 307 305 304 303 303 302 301 300 300
5 347 331 323 319 312 305 299 297 300 301 300 304 308 312 314 311 310 309 310 311 311 310 311 313 312 312 314 314 312 312 311 308 307 307 306 303 301 301 300 300 300 300 300
Height
1523 1521 1522 1521 1521 1524 1525 1522 1523 1515 1514 1505 1505 1506 1505 1505 1505 1505 1506 1506 1506 1506 1505 1505 1504 1503 1502 1500 1499 1497 1494 1492 1490 1488 1486 1484 1481 1479 1477 1475 1472 1470 1468 1465
1524 1521 1522 1520 1516 1517 1517 1517 1516 1513 1509 1503 1503 1504 1503 1503 1503 1503 1503 1504 1503 1503 1502 1502 1500 1499 1498 1496 1494 1492 1490 1488 1486 1484 1481 1479 1476 1474 1471 1469 1467 1464 1462 1459
1523 1523 1520 1517 1510 1510 1512 1510 1511 1509 1504 1501 1503 1502 1502 1501 1501 1501 1501 1501 1501 1500 1499 1498 1497 1496 1493 1492 1490 1488 1486 1483 1481 1479 1476 1473 1471 1468 1466 1463 1461 1458 1456 1453
1527 1525 1520 1504 1505 1504 1506 1506 1506 1503 1501 1500 1501 1500 1500 1500 1500 1499 1499 1499 1498 1497 1496 1495 1494 1492 1490 1488 1486 1483 1481 1479 1476 1474 1471 1468 1466 1463 1460 1457 1455 1452 1450 1447
1528 1526 1515 1505 1503 1504 1505 1503 1500 1500 1499 1499 1500 1500 1498 1498 1498 1498 1498 1497 1496 1495 1493 1492 1490 1488 1486 1484 1481 1479 1476 1474 1471 1468 1465 1463 1460 1457 1454 1451 1449 1447 1444 1442
1527 1523 1512 1501 1502 1501 1504 1503 1496 1496 1496 1498 1499 1502 1499 1496 1496 1496 1495 1495 1493 1492 1490 1489 1487 1485 1482 1479 1477 1474 1472 1469 1466 1464 1461 1458 1455 1452 1449 1446 1444 1441 1439 1436
1523 1520 1508 1501 1500 1502 1506 1498 1495 1494 1494 1496 1496 1497 1496 1495 1494 1494 1493 1493 1491 1489 1488 1486 1484 1481 1478 1476 1473 1470 1467 1465 1462 1459 1456 1453 1450 1447 1444 1442 1439 1436 1434 1431
1519 1518 1506 1498 1499 1500 1496 1493 1493 1493 1493 1494 1494 1494 1493 1493 1493 1492 1491 1490 1489 1487 1485 1483 1481 1478 1475 1472 1469 1466 1463 1460 1457 1455 1452 1449 1445 1442 1440 1437 1434 1431 1428 1426
1505 1500 1495 1493 1492 1492 1492 1492 1492 1492 1492 1492 1492 1492 1492 1491 1490 1490 1489 1487 1486 1484 1482 1480 1477 1475 1471 1468 1465 1462 1459 1456 1453 1450 1447 1444 1441 1438 1435 1433 1430 1427 1424 1421
1500 1493 1492 1491 1490 1490 1491 1491 1491 1491 1491 1490 1490 1490 1489 1489 1488 1487 1486 1485 1483 1481 1479 1476 1474 1471 1468 1465 1462 1458 1454 1451 1448 1445 1443 1440 1437 1434 1432 1429 1426 1423 1420 1417
1496 1491 1490 1488 1488 1488 1489 1489 1489 1489 1489 1489 1488 1488 1487 1486 1485 1484 1483 1482 1480 1478 1475 1473 1470 1467 1464 1461 1458 1454 1451 1447 1444 1442 1439 1435 1433 1431 1428 1425 1423 1420 1418 1415
1489 1486 1488 1487 1487 1487 1487 1487 1487 1487 1487 1487 1486 1486 1485 1484 1483 1482 1480 1479 1477 1475 1472 1469 1467 1463 1461 1458 1454 1450 1447 1444 1441 1438 1435 1432 1429 1426 1424 1422 1419 1416 1414 1412
1484 1484 1484 1484 1485 1485 1485 1485 1485 1485 1485 1484 1484 1483 1482 1481 1480 1479 1478 1476 1474 1471 1469 1466 1463 1460 1457 1454 1450 1447 1444 1440 1437 1434 1431 1429 1426 1422 1418 1416 1415 1412 1409 1407
1482 1483 1483 1483 1483 1484 1484 1483 1483 1483 1483 1482 1482 1481 1480 1479 1478 1476 1475 1473 1470 1468 1465 1462 1459 1456 1453 1450 1447 1443 1440 1437 1434 1431 1429 1426 1423 1420 1416 1413 1409 1406 1405 1402
1481 1481 1481 1481 1482 1482 1482 1482 1481 1481 1480 1480 1479 1478 1478 1476 1475 1473 1472 1470 1467 1464 1462 1459 1456 1453 1450 1447 1443 1440 1437 1434 1431 1429 1426 1423 1420 1417 1414 1411 1407 1404 1400 1398
1479 1479 1479 1480 1480 1480 1480 1480 1479 1479 1478 1478 1477 1476 1475 1474 1472 1471 1469 1467 1464 1461 1458 1456 1453 1450 1447 1444 1441 1437 1434 1432 1429 1426 1423 1421 1418 1415 1412 1408 1405 1402 1398 1396
1477 1477 1478 1478 1478 1478 1478 1478 1478 1477 1477 1476 1475 1474 1473 1471 1470 1468 1466 1464 1461 1458 1456 1453 1450 1447 1444 1441 1438 1435 1432 1429 1427 1424 1421 1418 1415 1412 1410 1406 1403 1400 1396 1394
1475 1476 1476 1476 1476 1476 1476 1476 1476 1476 1475 1474 1473 1472 1470 1469 1467 1465 1463 1460 1458 1456 1453 1450 1447 1444 1441 1438 1435 1433 1430 1427 1424 1421 1418 1416 1413 1410 1407 1404 1400 1397 1393 1391
1474 1474 1475 1475 1475 1475 1475 1474 1474 1474 1473 1472 1471 1469 1468 1466 1464 1462 1460 1457 1455 1452 1450 1447 1444 1441 1438 1436 1433 1430 1427 1425 1422 1419 1416 1413 1410 1407 1404 1401 1398 1395 1391 1388
1473 1473 1473 1474 1474 1474 1473 1473 1472 1472 1471 1470 1468 1467 1465 1464 1462 1459 1457 1455 1452 1449 1446 1444 1441 1438 1435 1433 1430 1427 1425 1422 1419 1416 1413 1410 1407 1404 1401 1399 1396 1392 1389 1386
1472 1472 1472 1472 1472 1472 1472 1471 1471 1470 1469 1468 1466 1464 1463 1461 1459 1456 1453 1451 1449 1446 1444 1441 1438 1435 1433 1430 1428 1425 1422 1419 1416 1413 1410 1407 1404 1402 1399 1396 1393 1390 1387 1384
1472 1472 1471 1471 1471 1470 1470 1469 1469 1468 1466 1465 1464 1462 1460 1458 1456 1453 1451 1449 1446 1443 1441 1438 1435 1433 1430 1428 1425 1422 1419 1416 1413 1410 1407 1405 1402 1399 1396 1393 1390 1387 1384 1382
1471 1470 1470 1470 1469 1468 1468 1467 1466 1465 1464 1462 1461 1459 1457 1455 1453 1450 1448 1446 1443 1441 1438 1435 1433 1430 1428 1425 1422 1419 1416 1413 1410 1407 1405 1402 1399 1396 1393 1390 1388 1385 1382 1379
1469 1469 1469 1468 1468 1467 1466 1465 1464 1463 1462 1460 1458 1456 1454 1452 1450 1448 1446 1443 1441 1438 1435 1433 1430 1428 1425 1422 1419 1416 1413 1410 1407 1404 1401 1399 1396 1393 1390 1388 1385 1382 1379 1376
1468 1467 1467 1466 1466 1465 1464 1463 1462 1460 1459 1457 1456 1454 1452 1449 1447 1445 1443 1440 1438 1435 1432 1430 1427 1425 1422 1419 1416 1413 1410 1407 1404 1402 1399 1396 1393 1390 1387 1384 1382 1379 1376 1373
1466 1466 1465 1464 1464 1463 1462 1461 1459 1458 1456 1454 1453 1451 1449 1447 1445 1442 1440 1437 1435 1432 1430 1427 1424 1422 1419 1416 1413 1410 1407 1405 1402 1399 1396 1393 1390 1387 1384 1381 1379 1376 1373 1370
1465 1464 1463 1463 1462 1461 1460 1459 1457 1456 1454 1452 1450 1449 1447 1444 1442 1440 1437 1435 1432 1430 1427 1425 1422 1419 1417 1414 1411 1408 1405 1402 1399 1396 1393 1390 1387 1384 1381 1379 1376 1373 1370 1367